COSMOS 2356

导读

COSMOS 2356是1998年6月15日由独联体(CIS)发射进入太空的卫星,隶属于苏联/俄罗斯“宇宙(Cosmos/Kosmos)”系列卫星。该系列自1962年持续发射至今,已累计发射近2500颗卫星,卫星用途多元,涵盖科学探测、通信服务与军事侦察等领域,COSMOS 2356是该系列中承担航天任务的典型一员。

Basic Information
目录编号:
25367
目录名称:
COSMOS 2356
国际标识:
1998-036E
轨道中心:
EARTH
卫星名称:
COSMOS 2356
卫星全名:
--
卫星状态:
在轨 (已飞行10256 天)
发射日期:
1998-06-15 UTC
国别 :
俄罗斯(独联体) (CIS)
星等 :
--
Orbit Information
数据来源 国际轨道数据 AOE轨道数据
星历时间 2026-07-14T03:40:50+0800
9小时前
查看轨道信息
2026-07-09T06:00:00+0800
5天前
查看轨道信息
半长轴 7960.121km 7960.118km
偏心率 0.0357364 0.0357271
轨道倾角 82.583° 82.583°
近地点辐角 116.083° 126.374°
升交点赤经 311.247° 314.156°
平近点角 247.748° 269.383°
近地点 1297.517km 1297.589km
远地点 1866.451km 1866.373km
周期 117.798分钟 117.798分钟
每日圈数 12.22428 12.224287
Detailed Information
使用方式:
暂无
2D Orbit Map
3D Orbit Map
Orbit Altitude Analysis Chart
Orbit Inclination Analysis Chart
Orbit Comprehensive Analysis Chart
View Comprehensive Chart